Location: Melara
(45.0500°N, 11.1833°E)
Time: 22:50:10
(UTC+00:00)

ALOS - Pass Details

Date: 26 May 2022
Orbit: 682 x 683 km, 97.9° (Epoch: 02 July)

Event Time Altitude Azimuth Distance (km) Brightness Sun altitude
Rises 02:30:50 0° 17° (NNE) 3,056 6.8 -9.9°
Reaches altitude 10° 02:33:08 10° 22° (NNE) 2,136 6.0 -9.6°
Maximum altitude 02:37:43 55° 100° (E) 825 2.9 -9.0°
Drops below altitude 10° 02:42:16 10° 178° (S) 2,119 4.4 -8.4°
Sets 02:44:32 0° 183° (S) 3,030 5.2 -8.1°
